Time,TemperatureF,DewpointF,PressureIn,WindDirection,WindDirectionDegrees,WindSpeedMPH,WindSpeedGustMPH,Humidity,HourlyPrecipIn,Conditions,Clouds,dailyrainin,SoftwareType,DateUTC
2013-08-26 00:14:00,69.0,64.0,30.18,SE,141,0.0,0.0,83,0.00,,,0.00,,2013-08-26 04:14:00,
2013-08-26 00:44:00,68.0,63.0,30.17,SE,141,0.0,0.0,85,0.00,,,0.00,,2013-08-26 04:44:00,
2013-08-26 00:53:00,68.0,63.0,30.17,SE,141,0.0,1.0,85,0.00,,,0.00,,2013-08-26 04:53:00,
2013-08-26 01:13:00,68.0,63.0,30.18,SE,141,0.0,1.0,84,0.00,,,0.00,,2013-08-26 05:13:00,
2013-08-26 01:23:00,68.0,63.0,30.17,SE,141,0.0,0.0,84,0.00,,,0.00,,2013-08-26 05:23:00,
2013-08-26 01:43:00,67.0,62.0,30.17,SE,141,0.0,0.0,85,0.00,,,0.00,,2013-08-26 05:43:00,
2013-08-26 01:52:00,67.0,63.0,30.16,SE,141,0.0,1.0,86,0.00,,,0.00,,2013-08-26 05:52:00,
2013-08-26 02:12:00,66.0,62.0,30.16,SE,141,0.0,0.0,87,0.00,,,0.00,,2013-08-26 06:12:00,
2013-08-26 02:21:00,66.0,62.0,30.16,SE,141,0.0,0.0,87,0.00,,,0.00,,2013-08-26 06:21:00,
2013-08-26 02:42:00,66.0,62.0,30.15,SE,141,0.0,0.0,87,0.00,,,0.00,,2013-08-26 06:42:00,
2013-08-26 02:52:00,66.0,62.0,30.14,SE,141,0.0,0.0,87,0.00,,,0.00,,2013-08-26 06:52:00,
2013-08-26 03:11:00,65.0,61.0,30.14,SE,141,0.0,0.0,87,0.00,,,0.00,,2013-08-26 07:11:00,
2013-08-26 03:22:00,65.0,61.0,30.13,SE,141,0.0,0.0,88,0.00,,,0.00,,2013-08-26 07:22:00,
2013-08-26 03:42:00,65.0,61.0,30.13,SE,141,0.0,0.0,87,0.00,,,0.00,,2013-08-26 07:42:00,
2013-08-26 03:52:00,64.0,60.0,30.13,SE,141,0.0,0.0,88,0.00,,,0.00,,2013-08-26 07:52:00,
2013-08-26 04:12:00,64.0,60.0,30.13,SE,141,0.0,0.0,88,0.00,,,0.00,,2013-08-26 08:12:00,
2013-08-26 04:22:00,64.0,60.0,30.14,SE,141,0.0,0.0,88,0.00,,,0.00,,2013-08-26 08:22:00,
2013-08-26 04:42:00,63.0,59.0,30.14,SE,141,0.0,0.0,88,0.00,,,0.00,,2013-08-26 08:42:00,
2013-08-26 04:52:00,63.0,60.0,30.14,SE,141,0.0,0.0,89,0.00,,,0.00,,2013-08-26 08:52:00,
2013-08-26 05:11:00,63.0,60.0,30.14,SE,141,0.0,0.0,91,0.00,,,0.00,,2013-08-26 09:11:00,
2013-08-26 05:21:00,62.0,59.0,30.14,SE,141,0.0,0.0,91,0.00,,,0.00,,2013-08-26 09:21:00,
2013-08-26 05:43:00,63.0,60.0,30.14,SE,141,0.0,0.0,90,0.00,,,0.00,,2013-08-26 09:43:00,
2013-08-26 05:53:00,63.0,60.0,30.13,SE,141,0.0,1.0,90,0.00,,,0.00,,2013-08-26 09:53:00,
2013-08-26 06:12:00,63.0,60.0,30.14,SE,141,0.0,0.0,90,0.00,,,0.00,,2013-08-26 10:12:00,
2013-08-26 06:23:00,63.0,60.0,30.14,SE,141,0.0,0.0,90,0.00,,,0.00,,2013-08-26 10:23:00,
2013-08-26 06:42:00,62.0,59.0,30.15,SE,141,0.0,1.0,90,0.00,,,0.00,,2013-08-26 10:42:00,
2013-08-26 06:52:00,62.0,59.0,30.15,SE,141,0.0,0.0,90,0.00,,,0.00,,2013-08-26 10:52:00,
2013-08-26 07:12:00,62.0,59.0,30.14,SE,141,0.0,0.0,90,0.00,,,0.00,,2013-08-26 11:12:00,
2013-08-26 07:22:00,61.0,58.0,30.14,SE,141,0.0,0.0,91,0.00,,,0.00,,2013-08-26 11:22:00,
2013-08-26 07:52:00,62.0,59.0,30.15,SE,141,0.0,0.0,91,0.00,,,0.00,,2013-08-26 11:52:00,
2013-08-26 08:12:00,62.0,59.0,30.15,SE,141,0.0,0.0,91,0.00,,,0.00,,2013-08-26 12:12:00,
2013-08-26 08:21:00,62.0,59.0,30.15,SE,141,0.0,0.0,91,0.00,,,0.00,,2013-08-26 12:21:00,
2013-08-26 08:52:00,63.0,60.0,30.16,SE,141,0.0,1.0,91,0.00,,,0.00,,2013-08-26 12:52:00,
2013-08-26 09:12:00,65.0,62.0,30.16,SE,141,0.0,2.0,90,0.00,,,0.00,,2013-08-26 13:12:00,
2013-08-26 09:21:00,66.0,62.0,30.15,SE,141,0.0,2.0,88,0.00,,,0.00,,2013-08-26 13:21:00,
2013-08-26 09:42:00,68.0,63.0,30.14,SE,146,0.0,3.0,85,0.00,,,0.00,,2013-08-26 13:42:00,
2013-08-26 09:52:00,69.0,64.0,30.14,SE,131,1.0,3.0,83,0.00,,,0.00,,2013-08-26 13:52:00,
2013-08-26 10:11:00,70.0,65.0,30.14,SSE,152,0.0,2.0,83,0.00,,,0.00,,2013-08-26 14:11:00,
2013-08-26 10:22:00,71.0,65.0,30.14,SE,143,1.0,3.0,82,0.00,,,0.00,,2013-08-26 14:22:00,
2013-08-26 10:42:00,71.0,66.0,30.14,SE,140,0.0,2.0,83,0.00,,,0.00,,2013-08-26 14:42:00,
2013-08-26 10:52:00,73.0,67.0,30.13,SSE,161,0.0,2.0,82,0.00,,,0.00,,2013-08-26 14:52:00,
2013-08-26 11:12:00,74.0,67.0,30.14,SE,136,0.0,3.0,80,0.00,,,0.00,,2013-08-26 15:12:00,
2013-08-26 11:22:00,76.0,69.0,30.14,SE,144,0.0,3.0,79,0.00,,,0.00,,2013-08-26 15:22:00,
2013-08-26 11:47:00,78.0,69.0,30.14,SSE,153,1.0,4.0,75,0.00,,,0.00,,2013-08-26 15:47:00,
2013-08-26 11:59:00,79.0,70.0,30.13,SE,137,1.0,4.0,73,0.00,,,0.00,,2013-08-26 15:59:00,
2013-08-26 12:17:00,81.0,72.0,30.13,NW,325,1.0,3.0,73,0.00,,,0.00,,2013-08-26 16:17:00,
2013-08-26 12:29:00,81.0,72.0,30.13,NW,325,1.0,3.0,73,0.00,,,0.00,,2013-08-26 16:29:00,
2013-08-26 12:48:00,83.0,72.0,30.13,SSW,197,0.0,2.0,69,0.00,,,0.00,,2013-08-26 16:48:00,
2013-08-26 12:59:00,84.0,71.0,30.13,NNW,340,1.0,7.0,66,0.00,,,0.00,,2013-08-26 16:59:00,
2013-08-26 13:12:00,84.0,71.0,30.12,West,281,2.0,6.0,65,0.00,,,0.00,,2013-08-26 17:12:00,
2013-08-26 13:24:00,84.0,70.0,30.12,NW,321,1.0,8.0,64,0.00,,,0.00,,2013-08-26 17:24:00,
2013-08-26 13:43:00,84.0,72.0,30.11,West,264,1.0,5.0,67,0.00,,,0.00,,2013-08-26 17:43:00,
2013-08-26 13:53:00,85.0,72.0,30.10,South,185,0.0,4.0,65,0.00,,,0.00,,2013-08-26 17:53:00,
2013-08-26 14:12:00,86.0,71.0,30.09,SW,220,2.0,6.0,61,0.00,,,0.00,,2013-08-26 18:12:00,
2013-08-26 14:22:00,87.0,72.0,30.09,SE,146,2.0,5.0,61,0.00,,,0.00,,2013-08-26 18:22:00,
2013-08-26 14:42:00,87.0,72.0,30.08,SSE,149,1.0,5.0,61,0.00,,,0.00,,2013-08-26 18:42:00,
2013-08-26 14:52:00,86.0,70.0,30.08,NNW,346,2.0,7.0,60,0.00,,,0.00,,2013-08-26 18:52:00,
2013-08-26 15:11:00,86.0,72.0,30.07,ESE,120,1.0,5.0,63,0.00,,,0.00,,2013-08-26 19:11:00,
2013-08-26 15:22:00,86.0,73.0,30.06,NNW,332,0.0,4.0,66,0.00,,,0.00,,2013-08-26 19:22:00,
2013-08-26 15:42:00,87.0,73.0,30.05,SSE,154,1.0,4.0,64,0.00,,,0.00,,2013-08-26 19:42:00,
2013-08-26 15:52:00,88.0,74.0,30.03,ESE,114,1.0,5.0,63,0.00,,,0.00,,2013-08-26 19:52:00,
2013-08-26 16:11:00,86.0,73.0,30.03,ESE,117,3.0,8.0,65,0.00,,,0.00,,2013-08-26 20:11:00,
2013-08-26 16:22:00,86.0,73.0,30.02,SE,146,2.0,7.0,66,0.00,,,0.00,,2013-08-26 20:22:00,
2013-08-26 16:43:00,86.0,74.0,30.02,South,186,1.0,8.0,67,0.00,,,0.00,,2013-08-26 20:43:00,
2013-08-26 16:52:00,85.0,73.0,30.01,ESE,111,1.0,6.0,68,0.00,,,0.00,,2013-08-26 20:52:00,
2013-08-26 17:11:00,85.0,74.0,30.01,SSW,207,1.0,6.0,69,0.00,,,0.00,,2013-08-26 21:11:00,
2013-08-26 17:22:00,85.0,74.0,30.01,ESE,113,2.0,5.0,70,0.00,,,0.00,,2013-08-26 21:22:00,
2013-08-26 17:44:00,86.0,74.0,30.01,ESE,104,2.0,8.0,67,0.00,,,0.00,,2013-08-26 21:44:00,
2013-08-26 17:55:00,86.0,73.0,30.01,ESE,119,3.0,7.0,66,0.00,,,0.00,,2013-08-26 21:55:00,
2013-08-26 18:16:00,85.0,73.0,30.01,SE,140,3.0,9.0,67,0.00,,,0.00,,2013-08-26 22:16:00,
2013-08-26 18:26:00,85.0,74.0,30.01,West,273,0.0,7.0,69,0.00,,,0.00,,2013-08-26 22:26:00,
2013-08-26 18:42:00,85.0,73.0,30.02,South,182,1.0,4.0,68,0.00,,,0.00,,2013-08-26 22:42:00,
2013-08-26 18:53:00,85.0,74.0,30.02,SSE,150,1.0,7.0,69,0.00,,,0.00,,2013-08-26 22:53:00,
2013-08-26 19:12:00,84.0,73.0,30.01,ESE,111,0.0,3.0,70,0.00,,,0.00,,2013-08-26 23:12:00,
2013-08-26 19:22:00,84.0,73.0,30.01,SE,143,1.0,4.0,70,0.00,,,0.00,,2013-08-26 23:22:00,
2013-08-26 19:52:00,82.0,73.0,30.01,SE,142,0.0,1.0,75,0.00,,,0.00,,2013-08-26 23:52:00,
2013-08-26 20:11:00,82.0,74.0,30.01,SE,142,0.0,1.0,76,0.00,,,0.00,,2013-08-27 00:11:00,
2013-08-26 20:21:00,81.0,73.0,30.01,SE,142,0.0,2.0,77,0.00,,,0.00,,2013-08-27 00:21:00,
2013-08-26 20:42:00,80.0,73.0,30.01,SE,142,0.0,1.0,79,0.00,,,0.00,,2013-08-27 00:42:00,
2013-08-26 20:52:00,79.0,73.0,30.01,SE,142,0.0,1.0,81,0.00,,,0.00,,2013-08-27 00:52:00,
2013-08-26 21:12:00,78.0,72.0,30.01,SE,142,0.0,2.0,81,0.00,,,0.00,,2013-08-27 01:12:00,
2013-08-26 21:22:00,78.0,72.0,30.01,SE,142,0.0,2.0,81,0.00,,,0.00,,2013-08-27 01:22:00,
2013-08-26 21:42:00,77.0,71.0,30.01,SE,142,0.0,2.0,82,0.00,,,0.00,,2013-08-27 01:42:00,
2013-08-26 21:52:00,76.0,70.0,30.01,SE,142,0.0,2.0,83,0.00,,,0.00,,2013-08-27 01:52:00,
2013-08-26 22:12:00,75.0,70.0,30.00,SE,142,0.0,1.0,85,0.00,,,0.00,,2013-08-27 02:12:00,
2013-08-26 22:21:00,75.0,71.0,30.01,SE,142,0.0,1.0,86,0.00,,,0.00,,2013-08-27 02:21:00,
2013-08-26 22:42:00,74.0,70.0,30.01,SE,142,0.0,1.0,87,0.00,,,0.00,,2013-08-27 02:42:00,
2013-08-26 22:52:00,74.0,70.0,30.01,SE,142,0.0,1.0,87,0.00,,,0.00,,2013-08-27 02:52:00,
2013-08-26 23:12:00,74.0,70.0,30.01,SE,142,0.0,1.0,88,0.00,,,0.00,,2013-08-27 03:12:00,
2013-08-26 23:22:00,73.0,69.0,30.01,SE,142,0.0,1.0,87,0.00,,,0.00,,2013-08-27 03:22:00,
2013-08-26 23:44:00,72.0,69.0,30.01,SE,142,0.0,0.0,89,0.00,,,0.00,,2013-08-27 03:44:00,
2013-08-26 23:58:00,72.0,69.0,30.01,SE,142,0.0,1.0,90,0.00,,,0.00,,2013-08-27 03:58:00,